< < Back
Terminal Aerodrome Forecast


Current Version              Previous Versions:   1  2  3  4  5  6  7  8  9  

Terminal Aerodrome Forecast

312
FTUS42 KGSP 280846 AAA
TAFCLT
TAF AMD
KCLT 280846Z 2809/2906 32006KT P6SM BKN060 OVC100
     FM280930 33007KT P6SM FEW060 SCT250
     FM281600 33009G16KT P6SM FEW250=

Latest METAR

762
SAUS70 KWBC 281600 RRC
MTRCLT
METAR KCLT 281552Z 32014G19KT 10SM FEW050 06/M10 A3008 RMK AO2 SLP186
T00611100


USA.gov is the U.S. government's official web portal to all federal, state and local government web resources and services.